• In Russia
  • List of Countries
  • For 7 days
  • Water Temperature
  • Weather Map
  • Weather Widgets
  • user-avatar
    Login

    Hourly Weather Sankt Polten

    Today, 28 February, Friday

    Time Temperature Precipitation Wind Pressure Humidity
    00:00 0°C° 0.4 mm 4 mps 720 mmHg 85%
    01:00 -1°C° 0 mm 6 mps 721 mmHg 88%
    02:00 -1°C° 1.2 mm 7 mps 722 mmHg 87%
    03:00 -1°C° 1.2 mm 8 mps 724 mmHg 85%
    04:00 -1°C° 1.2 mm 8 mps 725 mmHg 83%
    05:00 -1°C° 0.3 mm 8 mps 726 mmHg 85%
    06:00 -1°C° 0.3 mm 7 mps 728 mmHg 87%
    07:00 -2°C° 0 mm 7 mps 730 mmHg 88%
    08:00 -1°C° 0.2 mm 7 mps 731 mmHg 84%
    09:00 -1°C° 0.2 mm 7 mps 732 mmHg 81%
    10:00 0°C° 0.2 mm 7 mps 733 mmHg 77%
    11:00 0°C° 0.5 mm 7 mps 734 mmHg 76%
    12:00 +1°C° 0.5 mm 8 mps 735 mmHg 76%
    13:00 +1°C° 0 mm 8 mps 736 mmHg 74%
    14:00 +2°C° 0.2 mm 7 mps 736 mmHg 73%
    15:00 +2°C° 0.2 mm 7 mps 736 mmHg 71%
    16:00 +2°C° 0.2 mm 6 mps 736 mmHg 70%
    17:00 +1°C° 0 mm 5 mps 737 mmHg 75%
    18:00 0°C° 0 mm 4 mps 737 mmHg 80%
    19:00 0°C° 0 mm 3 mps 738 mmHg 84%
    20:00 -1°C° 0 mm 2 mps 738 mmHg 85%
    21:00 -1°C° 0 mm 2 mps 738 mmHg 85%
    22:00 -2°C° 0 mm 2 mps 738 mmHg 86%
    23:00 -2°C° 0 mm 2 mps 737 mmHg 84%

    Tomorrow, 29 February, Saturday

    Time Temperature Precipitation Wind Pressure Humidity
    00:00 -2°C° 0 mm 2 mps 737 mmHg 82%
    01:00 -1°C° 0 mm 1 mps 737 mmHg 80%
    02:00 0°C° 0 mm 1 mps 736 mmHg 78%
    03:00 0°C° 0 mm 1 mps 735 mmHg 77%
    04:00 +1°C° 0 mm 1 mps 735 mmHg 75%
    05:00 +1°C° 0 mm 1 mps 734 mmHg 74%
    06:00 +1°C° 0 mm 1 mps 734 mmHg 73%
    07:00 +1°C° 0 mm 1 mps 733 mmHg 72%
    08:00 +3°C° 0 mm 1 mps 732 mmHg 69%
    09:00 +5°C° 0 mm 1 mps 732 mmHg 66%
    10:00 +6°C° 0 mm 1 mps 731 mmHg 62%
    11:00 +7°C° 0 mm 1 mps 731 mmHg 64%
    12:00 +8°C° 0 mm 1 mps 730 mmHg 65%
    13:00 +9°C° 0 mm 1 mps 729 mmHg 66%
    14:00 +9°C° 0 mm 1 mps 729 mmHg 68%
    15:00 +9°C° 0 mm 1 mps 728 mmHg 70%
    16:00 +9°C° 0 mm 1 mps 727 mmHg 72%
    17:00 +7°C° 0 mm 1 mps 727 mmHg 74%
    18:00 +6°C° 0 mm 1 mps 727 mmHg 76%
    19:00 +5°C° 0 mm 1 mps 727 mmHg 77%
    20:00 +4°C° 0 mm 1 mps 727 mmHg 78%
    21:00 +4°C° 0 mm 1 mps 726 mmHg 79%
    22:00 +3°C° 0 mm 1 mps 726 mmHg 80%
    23:00 +3°C° 0 mm 1 mps 726 mmHg 80%

    Day after tomorrow, 1 March, Sunday

    Time Temperature Precipitation Wind Pressure Humidity
    00:00 +4°C° 0 mm 1 mps 726 mmHg 79%
    01:00 +4°C° 0 mm 1 mps 726 mmHg 79%
    02:00 +4°C° 0 mm 1 mps 727 mmHg 79%
    03:00 +2°C° 0 mm 2 mps 727 mmHg 80%
    04:00 +2°C° 0 mm 2 mps 727 mmHg 80%
    05:00 +4°C° 0 mm 1 mps 727 mmHg 81%
    06:00 +4°C° 0 mm 1 mps 727 mmHg 81%
    07:00 +5°C° 0 mm 1 mps 727 mmHg 81%
    08:00 +5°C° 0.3 mm 1 mps 727 mmHg 85%
    09:00 +5°C° 0.3 mm 1 mps 727 mmHg 88%
    10:00 +5°C° 0.3 mm 1 mps 728 mmHg 92%
    11:00 +6°C° 0.1 mm 1 mps 727 mmHg 91%
    12:00 +6°C° 0.1 mm 1 mps 727 mmHg 91%
    13:00 +7°C° 0.1 mm 1 mps 727 mmHg 91%
    14:00 +6°C° 0.8 mm 1 mps 727 mmHg 92%
    15:00 +6°C° 0.8 mm 1 mps 726 mmHg 94%
    16:00 +5°C° 0.8 mm 1 mps 726 mmHg 95%
    17:00 +5°C° 0.6 mm 1 mps 726 mmHg 96%
    18:00 +5°C° 0.6 mm 1 mps 726 mmHg 96%
    19:00 +5°C° 0.6 mm 1 mps 726 mmHg 97%
    20:00 +5°C° 0 mm 1 mps 726 mmHg 97%
    21:00 +4°C° 0 mm 1 mps 725 mmHg 96%
    22:00 +4°C° 0 mm 1 mps 725 mmHg 96%
    23:00 +4°C° 0 mm 1 mps 724 mmHg 95%

    2 March, Monday

    Time Temperature Precipitation Wind Pressure Humidity
    00:00 +4°C° 0 mm 1 mps 723 mmHg 94%
    01:00 +4°C° 0 mm 1 mps 723 mmHg 93%
    02:00 +4°C° 0.1 mm 1 mps 722 mmHg 94%
    03:00 +4°C° 0.1 mm 1 mps 722 mmHg 95%
    04:00 +3°C° 0.1 mm 0 mps 721 mmHg 95%
    05:00 +4°C° 0.4 mm 1 mps 722 mmHg 95%
    06:00 +3°C° 0.4 mm 2 mps 722 mmHg 94%
    07:00 +1°C° 0.4 mm 4 mps 722 mmHg 93%
    08:00 +3°C° 0.1 mm 3 mps 723 mmHg 90%
    09:00 +3°C° 0.1 mm 3 mps 723 mmHg 86%
    10:00 +4°C° 0.1 mm 3 mps 723 mmHg 83%
    11:00 +5°C° 0 mm 3 mps 723 mmHg 77%
    12:00 +8°C° 0 mm 2 mps 723 mmHg 70%
    13:00 +10°C° 0 mm 1 mps 723 mmHg 64%
    14:00 +10°C° 0 mm 1 mps 723 mmHg 66%
    15:00 +9°C° 0 mm 2 mps 722 mmHg 68%
    16:00 +8°C° 0 mm 2 mps 722 mmHg 71%
    17:00 +7°C° 0 mm 2 mps 722 mmHg 75%
    18:00 +6°C° 0 mm 2 mps 722 mmHg 79%
    19:00 +4°C° 0 mm 2 mps 722 mmHg 83%
    20:00 +4°C° 0 mm 2 mps 722 mmHg 85%
    21:00 +5°C° 0 mm 1 mps 722 mmHg 87%
    22:00 +5°C° 0 mm 1 mps 722 mmHg 89%
    23:00 +5°C° 0 mm 1 mps 722 mmHg 89%

    3 March, Tuesday

    Time Temperature Precipitation Wind Pressure Humidity
    00:00 +5°C° 0 mm 1 mps 722 mmHg 90%
    01:00 +5°C° 0 mm 1 mps 722 mmHg 90%
    02:00 +5°C° 0 mm 1 mps 722 mmHg 90%
    03:00 +5°C° 0 mm 1 mps 722 mmHg 90%
    04:00 +4°C° 0 mm 0 mps 722 mmHg 90%
    05:00 +5°C° 0.2 mm 1 mps 722 mmHg 90%
    06:00 +5°C° 0.2 mm 1 mps 722 mmHg 90%
    07:00 +5°C° 0.2 mm 1 mps 723 mmHg 91%
    08:00 +4°C° 0.3 mm 2 mps 723 mmHg 90%
    09:00 +4°C° 0.3 mm 2 mps 724 mmHg 90%
    10:00 +4°C° 0.3 mm 3 mps 724 mmHg 89%
    11:00 +4°C° 0.1 mm 3 mps 725 mmHg 88%
    12:00 +5°C° 0.1 mm 3 mps 725 mmHg 87%
    13:00 +5°C° 0.1 mm 3 mps 725 mmHg 86%
    14:00 +5°C° 0.2 mm 3 mps 726 mmHg 87%
    15:00 +5°C° 0.2 mm 3 mps 726 mmHg 88%
    16:00 +5°C° 0.2 mm 3 mps 726 mmHg 89%
    17:00 +4°C° 0.4 mm 3 mps 727 mmHg 91%
    18:00 +4°C° 0.4 mm 3 mps 727 mmHg 92%
    19:00 +4°C° 0.4 mm 3 mps 728 mmHg 94%
    20:00 +4°C° 0.5 mm 3 mps 728 mmHg 94%
    21:00 +3°C° 0.5 mm 3 mps 728 mmHg 94%
    22:00 +3°C° 0.5 mm 3 mps 729 mmHg 95%
    23:00 +3°C° 0.5 mm 3 mps 728 mmHg 94%

    4 March, Wednesday

    Time Temperature Precipitation Wind Pressure Humidity
    00:00 +3°C° 0.5 mm 3 mps 728 mmHg 94%
    01:00 +3°C° 0.5 mm 3 mps 728 mmHg 94%
    02:00 +3°C° 0.5 mm 3 mps 728 mmHg 94%
    03:00 +3°C° 0.5 mm 3 mps 728 mmHg 94%
    04:00 +2°C° 0.5 mm 3 mps 728 mmHg 94%
    05:00 +2°C° 0.4 mm 3 mps 728 mmHg 94%
    06:00 +2°C° 0.4 mm 3 mps 728 mmHg 93%
    07:00 +2°C° 0.4 mm 3 mps 728 mmHg 93%
    08:00 +2°C° 0.1 mm 3 mps 728 mmHg 90%
    09:00 +3°C° 0.1 mm 3 mps 728 mmHg 86%
    10:00 +4°C° 0.1 mm 2 mps 728 mmHg 83%
    11:00 +5°C° 0 mm 2 mps 727 mmHg 79%
    12:00 +6°C° 0 mm 2 mps 727 mmHg 76%
    13:00 +6°C° 0 mm 2 mps 727 mmHg 72%
    14:00 +7°C° 0 mm 2 mps 726 mmHg 71%
    15:00 +7°C° 0 mm 2 mps 726 mmHg 70%
    16:00 +8°C° 0 mm 1 mps 726 mmHg 69%
    17:00 +6°C° 0 mm 1 mps 726 mmHg 73%
    18:00 +5°C° 0 mm 1 mps 726 mmHg 77%
    19:00 +4°C° 0 mm 1 mps 727 mmHg 81%
    20:00 +4°C° 0 mm 1 mps 727 mmHg 81%
    21:00 +3°C° 0 mm 1 mps 727 mmHg 81%
    22:00 +3°C° 0 mm 1 mps 727 mmHg 81%
    23:00 +3°C° 0 mm 1 mps 727 mmHg 81%
    Show more